Location: Bílinka
(49.3579°N, 14.3767°E)
Time: 10:39:04
(UTC+00:00)

FENGYUN 1C DEB - Pass Details

Date: 21 February 2024
Orbit: 850 x 890 km, 98.8° (Epoch: 12 April)

Event Time Altitude Azimuth Distance (km) Brightness Sun altitude
Rises 19:06:10 0° 200° (SSW) 3,404 ? -25.8°
Reaches altitude 10° 19:08:57 10° 214° (SSW) 2,475 ? -26.2°
Maximum altitude 19:13:23 25° 268° (W) 1,667 ? -26.9°
Drops below altitude 10° 19:17:54 10° 322° (NW) 2,503 ? -27.6°
Sets 19:20:44 0° 336° (NNW) 3,451 ? -28.0°
